CW4047 Weather Reports


Display with metric or nautical units.
time (UTC)temp
F
wind
direction
speed
MPH
gust
MPH
rain 1hr
in
rain 24hr
in
rain mn
in
humidity
%
barometer
mb
20260509223653 71 234 1.0 5.0 0.00 0.00 0.00 56 1008.5
20260509223155 71 237 0.0 3.0 0.00 0.00 0.00 58 1008.5
20260509222654 71 237 0.0 3.0 0.00 0.00 0.00 59 1008.6
20260509222153 71 237 1.0 4.0 0.00 0.00 0.00 57 1008.6
20260509221653 71 237 2.0 4.0 0.00 0.00 0.00 57 1008.6
20260509221439 71 238 1.0 4.0 0.00 0.00 0.00 56 1008.5
20260509220936 71 237 0.0 3.0 0.00 0.00 0.00 59 1008.5
20260509220154 71 237 0.0 3.0 0.00 0.00 0.00 59 1008.5
20260509215653 72 237 0.0 3.0 0.00 0.00 0.00 57 1008.6
20260509215152 72 237 0.0 2.0 0.00 0.00 0.00 58 1008.5
20260509214653 72 237 0.0 2.0 0.00 0.00 0.00 58 1008.6
20260509214152 71 222 1.0 2.0 0.00 0.00 0.00 59 1008.6
20260509213654 71 242 0.0 2.0 0.00 0.00 0.00 60 1008.6
20260509213152 71 242 0.0 2.0 0.00 0.00 0.00 61 1008.6
20260509212654 70 242 0.0 0.0 0.00 0.00 0.00 60 1008.6
20260509212155 70 242 0.0 0.0 0.00 0.00 0.00 61 1008.7
20260509211650 70 242 0.0 2.0 0.00 0.00 0.00 61 1008.6
20260509211150 69 242 0.0 2.0 0.00 0.00 0.00 60 1008.7
20260509210931 69 242 0.0 1.0 0.00 0.00 0.00 62 1008.6
20260509210432 69 242 0.0 3.0 0.00 0.00 0.00 62 1008.7
20260509205651 69 242 1.0 3.0 0.00 0.00 0.00 61 1008.7
20260509205152 69 242 0.0 1.0 0.00 0.00 0.00 62 1008.8
20260509204653 69 242 0.0 3.0 0.00 0.00 0.00 61 1008.8
20260509204150 69 227 2.0 3.0 0.00 0.00 0.00 61 1008.7
20260509203933 69 242 1.0 5.0 0.00 0.00 0.00 61 1008.6
20260509203151 69 242 1.0 6.0 0.00 0.00 0.00 61 1008.7
20260509202655 69 228 3.0 6.0 0.00 0.00 0.00 60 1008.7
20260509202151 69 225 2.0 6.0 0.00 0.00 0.00 61 1008.6
20260509201650 69 224 0.0 4.0 0.00 0.00 0.00 60 1008.7
20260509201433 70 236 2.0 4.0 0.00 0.00 0.00 59 1008.7
20260509200651 70 226 1.0 4.0 0.00 0.00 0.00 61 1008.6
20260509200151 69 229 2.0 6.0 0.00 0.00 0.00 61 1008.7
20260509195930 69 229 2.0 6.0 0.00 0.00 0.00 62 1008.7
20260509195150 69 228 0.0 4.0 0.00 0.00 0.00 62 1008.7
20260509194651 68 228 1.0 5.0 0.00 0.00 0.00 62 1008.7
20260509194151 68 228 1.0 5.0 0.00 0.00 0.00 61 1008.8
20260509193930 68 129 2.0 5.0 0.00 0.00 0.00 61 1008.9
20260509193150 68 229 1.0 4.0 0.00 0.00 0.00 64 1009.1
20260509192651 68 213 1.0 4.0 0.00 0.00 0.00 64 1009.1
20260509192151 68 160 1.0 4.0 0.00 0.00 0.00 62 1009.1
20260509191651 68 161 0.0 5.0 0.00 0.00 0.00 63 1009.3
20260509191150 68 161 2.0 5.0 0.00 0.00 0.00 62 1009.3
20260509190651 68 127 1.0 4.0 0.00 0.00 0.00 62 1009.3
20260509190436 68 117 0.0 2.0 0.00 0.00 0.00 62 1009.3
20260509185652 68 117 1.0 2.0 0.00 0.00 0.00 61 1009.2
20260509185438 67 117 0.0 5.0 0.00 0.00 0.00 62 1009.3
20260509184937 67 117 2.0 5.0 0.00 0.00 0.00 61 1009.5
20260509184150 67 227 1.0 4.0 0.00 0.00 0.00 60 1009.6
20260509183937 68 242 1.0 4.0 0.00 0.00 0.00 60 1009.4
20260509183152 68 242 1.0 3.0 0.00 0.00 0.00 60 1009.6
20260509182647 68 242 1.0 3.0 0.00 0.00 0.00 61 1009.7
20260509182144 67 242 1.0 4.0 0.00 0.00 0.00 60 1009.8
20260509181642 67 242 1.0 4.0 0.00 0.00 0.00 61 1009.9
20260509181139 67 242 1.0 2.0 0.00 0.00 0.00 63 1009.9
20260509180919 67 242 1.0 2.0 0.00 0.00 0.00 60 1010.3
20260509180138 66 242 0.0 2.0 0.00 0.00 0.00 61 1010.5
20260509175631 66 242 0.0 2.0 0.00 0.00 0.00 62 1010.7
20260509175130 66 242 0.0 2.0 0.00 0.00 0.00 61 1010.7
20260509174630 66 242 0.0 2.0 0.00 0.00 0.00 60 1010.6
20260509174418 65 242 0.0 2.0 0.00 0.00 0.00 60 1010.5
20260509173631 65 242 0.0 2.0 0.00 0.00 0.00 63 1010.7
20260509173129 65 242 0.0 3.0 0.00 0.00 0.00 60 1010.8
20260509172629 65 242 1.0 3.0 0.00 0.00 0.00 59 1011.0
20260509172129 65 242 0.0 2.0 0.00 0.00 0.00 61 1011.1
20260509171627 64 242 0.0 4.0 0.00 0.00 0.00 59 1011.0
20260509171126 65 242 2.0 4.0 0.00 0.00 0.00 58 1011.1
20260509170623 65 242 0.0 4.0 0.00 0.00 0.00 59 1011.1
20260509170115 65 242 0.0 4.0 0.00 0.00 0.00 58 1011.1
20260509165858 65 242 1.0 2.0 0.00 0.00 0.00 57 1011.1
20260509165114 65 242 0.0 2.0 0.00 0.00 0.00 58 1011.0
20260509164613 65 242 0.0 2.0 0.00 0.00 0.00 60 1010.9
20260509164110 64 242 0.0 3.0 0.00 0.00 0.00 59 1011.0
20260509163607 64 242 0.0 4.0 0.00 0.00 0.00 61 1011.0
20260509163104 64 242 1.0 4.0 0.00 0.00 0.00 60 1011.0
20260509162602 64 242 2.0 4.0 0.00 0.00 0.00 60 1011.1
20260509162103 64 242 0.0 2.0 0.00 0.00 0.00 58 1011.1
20260509161602 64 242 0.0 3.0 0.00 0.00 0.00 60 1011.2
20260509161103 64 242 2.0 4.0 0.00 0.00 0.00 58 1011.1
20260509160603 64 242 1.0 4.0 0.00 0.00 0.00 58 1011.2
20260509160103 65 242 1.0 3.0 0.00 0.00 0.00 62 1011.2
20260509155603 65 242 0.0 4.0 0.00 0.00 0.00 58 1011.1
20260509155400 65 242 1.0 4.0 0.00 0.00 0.00 58 1011.1
20260509154845 65 242 1.0 4.0 0.00 0.00 0.00 61 1011.2
20260509154104 64 242 1.0 3.0 0.00 0.00 0.00 59 1011.2
20260509153605 64 242 1.0 2.0 0.00 0.00 0.00 58 1011.1
20260509153102 64 242 0.0 2.0 0.00 0.00 0.00 60 1011.2
20260509152846 64 242 1.0 2.0 0.00 0.00 0.00 60 1011.2
20260509152101 63 242 0.0 3.0 0.00 0.00 0.00 61 1011.2
20260509151603 63 242 1.0 4.0 0.00 0.00 0.00 64 1011.2
20260509151347 63 242 0.0 4.0 0.00 0.00 0.00 62 1011.2
20260509150604 62 242 0.0 4.0 0.00 0.00 0.00 64 1011.3
20260509150104 62 242 1.0 4.0 0.00 0.00 0.00 64 1011.4
20260509145602 61 242 0.0 3.0 0.00 0.00 0.00 63 1011.4
20260509145117 61 242 0.0 2.0 0.00 0.00 0.00 63 1011.5
20260509144602 60 242 1.0 5.0 0.00 0.00 0.00 63 1011.6
20260509144101 60 242 1.0 5.0 0.00 0.00 0.00 64 1011.6
20260509143602 60 242 1.0 4.0 0.00 0.00 0.00 66 1011.6
20260509143101 60 242 1.0 4.0 0.00 0.00 0.00 65 1011.7
20260509142600 59 242 1.0 3.0 0.00 0.00 0.00 64 1011.5
20260509142109 59 242 0.0 2.0 0.00 0.00 0.00 65 1011.4
20260509141626 59 242 1.0 6.0 0.00 0.00 0.00 64 1011.5
20260509140601 59 232 1.0 3.0 0.00 0.00 0.00 66 1011.4
20260509135601 60 232 1.0 3.0 0.00 0.00 0.00 64 1011.4
20260509135103 60 209 0.0 4.0 0.00 0.00 0.00 63 1011.4
20260509134601 60 225 1.0 4.0 0.00 0.00 0.00 63 1011.5
20260509134101 60 213 0.0 4.0 0.00 0.00 0.00 63 1011.5
20260509133601 60 213 1.0 4.0 0.00 0.00 0.00 64 1011.5
20260509133101 60 214 2.0 4.0 0.00 0.00 0.00 63 1011.5
20260509132602 60 213 1.0 3.0 0.00 0.00 0.00 62 1011.4
20260509132101 59 213 1.0 3.0 0.00 0.00 0.00 63 1011.4
20260509131600 59 223 1.0 3.0 0.00 0.00 0.00 63 1011.5
20260509131101 59 233 1.0 3.0 0.00 0.00 0.00 64 1011.5
20260509130847 59 233 1.0 3.0 0.00 0.00 0.00 63 1011.5
20260509130101 59 233 0.0 4.0 0.00 0.00 0.00 66 1011.5
20260509125601 59 233 2.0 6.0 0.00 0.00 0.00 65 1011.5
20260509125103 58 233 2.0 6.0 0.00 0.00 0.00 66 1011.5
20260509124601 58 242 1.0 3.0 0.00 0.00 0.00 69 1011.5
20260509124102 58 243 0.0 2.0 0.00 0.00 0.00 69 1011.5
20260509123601 58 208 0.0 3.0 0.00 0.00 0.00 69 1011.4
20260509123102 58 208 0.0 3.0 0.00 0.00 0.00 69 1011.5
20260509122600 58 208 0.0 2.0 0.00 0.00 0.00 69 1011.6
20260509122345 57 208 0.0 2.0 0.00 0.00 0.00 69 1011.5
20260509121558 57 208 0.0 2.0 0.00 0.00 0.00 69 1011.5
20260509121333 57 207 0.0 0.0 0.00 0.00 0.00 75 1011.6
20260509120550 57 207 0.0 2.0 0.00 0.00 0.00 70 1011.7
20260509120052 56 207 0.0 2.0 0.00 0.00 0.00 70 1011.7
20260509115551 56 207 0.0 0.0 0.00 0.00 0.00 71 1011.5
20260509115052 56 207 0.0 0.0 0.00 0.00 0.00 73 1011.5
20260509114551 56 207 0.0 2.0 0.00 0.00 0.00 73 1011.5
20260509114050 55 207 0.0 2.0 0.00 0.00 0.00 72 1011.4
20260509113836 55 207 0.0 0.0 0.00 0.00 0.00 75 1011.3
20260509113051 55 207 0.0 0.0 0.00 0.00 0.00 73 1011.2
20260509112552 55 207 0.0 0.0 0.00 0.00 0.00 73 1011.2
20260509112050 54 207 0.0 0.0 0.00 0.00 0.00 71 1011.1
20260509111552 54 207 0.0 0.0 0.00 0.00 0.00 70 1011.1
20260509111334 54 207 0.0 0.0 0.00 0.00 0.00 70 1011.1
20260509110551 54 207 0.0 0.0 0.00 0.00 0.00 70 1011.0
20260509110051 54 207 0.0 0.0 0.00 0.00 0.00 71 1011.1
20260509105835 54 207 0.0 0.0 0.00 0.00 0.00 71 1011.0
20260509105334 54 207 0.0 0.0 0.00 0.00 0.00 70 1011.0
20260509104552 55 207 0.0 0.0 0.00 0.00 0.00 68 1010.8
20260509104051 55 207 0.0 0.0 0.00 0.00 0.00 70 1010.8
20260509103551 55 207 0.0 0.0 0.00 0.00 0.00 67 1010.8
20260509103051 55 207 0.0 2.0 0.00 0.00 0.00 67 1010.7
20260509102552 55 207 0.0 2.0 0.00 0.00 0.00 66 1010.7
20260509102051 55 207 0.0 2.0 0.00 0.00 0.00 66 1010.9
20260509101850 55 206 0.0 1.0 0.00 0.00 0.00 66 1010.9
20260509101051 55 206 0.0 2.0 0.00 0.00 0.00 66 1010.9
20260509100836 55 207 0.0 2.0 0.00 0.00 0.00 66 1010.8
20260509100046 55 207 0.0 2.0 0.00 0.00 0.00 66 1010.8
20260509095539 55 207 0.0 2.0 0.00 0.00 0.00 66 1010.8
20260509095039 55 207 0.0 2.0 0.00 0.00 0.00 66 1010.8
20260509094538 55 207 0.0 2.0 0.00 0.00 0.00 65 1010.7
20260509094039 55 207 0.0 1.0 0.00 0.00 0.00 66 1010.8
20260509093539 55 207 0.0 2.0 0.00 0.00 0.00 65 1010.9
20260509093040 56 207 0.0 2.0 0.00 0.00 0.00 65 1011.0
20260509092539 56 207 0.0 1.0 0.00 0.00 0.00 64 1011.0
20260509092039 56 207 0.0 2.0 0.00 0.00 0.00 65 1011.1
20260509091540 56 207 0.0 2.0 0.00 0.00 0.00 64 1011.0
20260509091039 56 207 0.0 2.0 0.00 0.00 0.00 64 1011.0
20260509090540 56 207 0.0 2.0 0.00 0.00 0.00 65 1011.1
20260509090038 56 207 0.0 2.0 0.00 0.00 0.00 64 1011.1
20260509085538 56 207 0.0 3.0 0.00 0.00 0.00 64 1011.1
20260509085040 56 207 1.0 3.0 0.00 0.00 0.00 64 1011.1
20260509084538 56 205 0.0 4.0 0.00 0.00 0.00 64 1011.3
20260509084039 56 205 1.0 4.0 0.00 0.00 0.00 64 1011.3
20260509083539 56 217 0.0 2.0 0.00 0.00 0.00 64 1011.3
20260509083038 56 200 1.0 2.0 0.00 0.00 0.00 64 1011.4
20260509082539 56 217 1.0 2.0 0.00 0.00 0.00 65 1011.3
20260509082039 55 217 0.0 2.0 0.00 0.00 0.00 66 1011.3
20260509081538 55 217 0.0 2.0 0.00 0.00 0.00 66 1011.4
20260509081041 54 217 0.0 2.0 0.00 0.00 0.00 68 1011.4
20260509080539 54 217 0.0 2.0 0.00 0.00 0.00 69 1011.5
20260509080038 53 217 0.0 2.0 0.00 0.00 0.00 71 1011.5
20260509075824 52 217 0.0 1.0 0.00 0.00 0.00 73 1011.5
20260509075322 52 217 0.0 2.0 0.00 0.00 0.00 75 1011.5
20260509074539 51 217 0.0 2.0 0.00 0.00 0.00 76 1011.6
20260509074039 50 217 0.0 1.0 0.00 0.00 0.00 78 1011.6
20260509073539 50 217 0.0 1.0 0.00 0.00 0.00 80 1011.6
20260509073037 49 217 0.0 0.0 0.00 0.00 0.00 81 1011.6
20260509072534 49 217 0.0 0.0 0.00 0.00 0.00 81 1011.6
20260509072031 49 217 0.0 0.0 0.00 0.00 0.00 83 1011.6
20260509071529 49 217 0.0 0.0 0.00 0.00 0.00 84 1011.6
20260509071030 49 217 0.0 0.0 0.00 0.00 0.00 83 1011.5
20260509070530 49 217 0.0 0.0 0.00 0.00 0.00 83 1011.5
20260509070316 48 217 0.0 0.0 0.00 0.00 0.00 83 1011.6
20260509065532 48 217 0.0 0.0 0.00 0.00 0.00 82 1011.7
20260509065053 48 217 0.0 0.0 0.00 0.00 0.00 82 1011.6
20260509064032 48 217 0.0 0.0 0.00 0.00 0.00 82 1011.5
20260509063532 48 217 0.0 0.0 0.00 0.00 0.00 82 1011.7
20260509063030 48 217 0.0 0.0 0.00 0.00 0.00 83 1011.7
20260509062531 48 217 0.0 0.0 0.00 0.00 0.00 83 1011.8
20260509062308 48 217 0.0 0.0 0.00 0.00 0.00 83 1011.8
20260509061529 48 217 0.0 0.0 0.00 0.00 0.00 82 1011.9
20260509061029 48 217 0.0 0.0 0.00 0.00 0.00 82 1011.9
20260509060529 48 217 0.0 0.0 0.00 0.00 0.00 82 1012.0
20260509060030 48 217 0.0 0.0 0.00 0.00 0.00 82 1011.9
20260509055529 48 217 0.0 0.0 0.00 0.00 0.00 82 1012.0
20260509055030 48 217 0.0 0.0 0.00 0.00 0.00 81 1012.0
20260509054529 48 217 0.0 0.0 0.00 0.00 0.00 81 1012.0
20260509054030 48 217 0.0 0.0 0.00 0.00 0.00 81 1012.0
20260509053529 49 217 0.0 0.0 0.00 0.00 0.00 81 1012.1
20260509053029 49 217 0.0 0.0 0.00 0.00 0.00 81 1012.1
20260509052529 49 217 0.0 0.0 0.00 0.00 0.00 80 1012.1
20260509052029 49 217 0.0 0.0 0.00 0.00 0.00 80 1012.0
20260509051529 49 217 0.0 0.0 0.00 0.00 0.00 80 1012.1
20260509051030 49 217 0.0 0.0 0.00 0.00 0.00 80 1012.1
20260509050529 49 217 0.0 0.0 0.00 0.00 0.00 81 1012.1
20260509050029 50 217 0.0 0.0 0.00 0.00 0.00 80 1012.1
20260509045529 50 217 0.0 0.0 0.00 0.00 0.00 79 1012.1
20260509045311 50 217 0.0 0.0 0.00 0.00 0.00 79 1012.1
20260509044529 50 217 0.0 0.0 0.00 0.00 0.00 79 1012.1
20260509044029 49 217 0.0 0.0 0.00 0.00 0.00 78 1012.0
20260509043532 49 217 0.0 0.0 0.00 0.00 0.00 78 1012.1
20260509043032 49 217 0.0 0.0 0.00 0.00 0.00 79 1012.1
20260509042532 49 217 0.0 0.0 0.00 0.00 0.00 80 1012.1
20260509042033 49 217 0.0 0.0 0.00 0.00 0.00 80 1012.1
20260509041532 49 217 0.0 0.0 0.00 0.00 0.00 81 1012.1
20260509041031 49 217 0.0 0.0 0.00 0.00 0.00 81 1012.2
20260509040552 49 217 0.0 0.0 0.00 0.00 0.00 81 1012.1
20260509035532 49 217 0.0 0.0 0.00 0.00 0.00 80 1012.1
20260509035031 49 217 0.0 0.0 0.00 0.00 0.00 80 1012.2
20260509034531 50 217 0.0 0.0 0.00 0.00 0.00 80 1012.2
20260509034033 50 217 0.0 0.0 0.00 0.00 0.00 80 1012.3
20260509033531 50 217 0.0 0.0 0.00 0.00 0.00 80 1012.3
20260509033031 51 217 0.0 0.0 0.00 0.00 0.00 79 1012.3
20260509032531 51 217 0.0 0.0 0.00 0.00 0.00 79 1012.3
20260509032029 51 217 0.0 0.0 0.00 0.00 0.00 78 1012.3
20260509031600 51 217 0.0 0.0 0.00 0.00 0.00 78 1012.3
20260509030529 51 217 0.0 0.0 0.00 0.00 0.00 78 1012.3
20260509030030 52 217 0.0 0.0 0.00 0.00 0.00 78 1012.4
20260509025529 52 217 0.0 0.0 0.00 0.00 0.00 78 1012.4
20260509025051 52 217 0.0 0.0 0.00 0.00 0.00 78 1012.5
20260509024029 53 217 0.0 0.0 0.00 0.00 0.00 77 1012.4
20260509023529 53 217 0.0 0.0 0.00 0.00 0.00 76 1012.5
20260509023029 53 217 0.0 0.0 0.00 0.00 0.00 76 1012.5
20260509022529 54 217 0.0 0.0 0.00 0.00 0.00 76 1012.5
20260509022029 54 217 0.0 0.0 0.00 0.00 0.00 75 1012.5
20260509021530 54 217 0.0 0.0 0.00 0.00 0.00 75 1012.5
20260509021029 55 217 0.0 0.0 0.00 0.00 0.00 74 1012.5
20260509020529 55 217 0.0 0.0 0.00 0.00 0.00 74 1012.5
20260509020030 55 217 0.0 0.0 0.00 0.00 0.00 73 1012.5
20260509015530 56 217 0.0 0.0 0.00 0.00 0.00 72 1012.5
20260509015029 56 217 0.0 2.0 0.00 0.00 0.00 71 1012.5
20260509014529 57 217 0.0 2.0 0.00 0.00 0.00 70 1012.4
20260509014029 57 217 0.0 0.0 0.00 0.00 0.00 70 1012.4
20260509013529 58 217 0.0 0.0 0.00 0.00 0.00 69 1012.4
20260509013107 58 217 0.0 0.0 0.00 0.00 0.00 69 1012.4
20260509011529 59 217 0.0 0.0 0.00 0.00 0.00 67 1012.4
20260509011032 59 217 0.0 0.0 0.00 0.00 0.00 67 1012.3
20260509010818 59 217 0.0 0.0 0.00 0.00 0.00 67 1012.3
20260509010312 59 217 0.0 0.0 0.00 0.00 0.00 68 1012.3
20260509005528 60 217 0.0 2.0 0.00 0.00 0.00 67 1012.2
20260509005028 60 217 0.0 2.0 0.00 0.00 0.00 66 1012.2
20260509004527 60 217 0.0 2.0 0.00 0.00 0.00 65 1012.2
20260509004028 60 217 0.0 2.0 0.00 0.00 0.00 64 1012.2
20260509003526 60 217 0.0 1.0 0.00 0.00 0.00 64 1012.2
20260509003024 61 217 0.0 0.0 0.00 0.00 0.00 61 1012.1
20260509002521 61 217 0.0 0.0 0.00 0.00 0.00 61 1012.1
20260509002018 61 217 0.0 0.0 0.00 0.00 0.00 60 1012.1
20260509001518 62 217 0.0 0.0 0.00 0.00 0.00 60 1012.1
20260509001015 62 217 0.0 1.0 0.00 0.00 0.00 58 1011.9
20260509000746 62 217 0.0 1.0 0.00 0.00 0.00 58 1011.8
20260509000007 63 217 0.0 0.0 0.00 0.00 0.00 58 1011.8
20260508235506 63 217 0.0 0.0 0.00 0.00 0.00 57 1011.8
20260508235008 63 217 0.0 0.0 0.00 0.00 0.00 56 1011.7
20260508234744 64 217 0.0 0.0 0.00 0.00 0.00 53 1011.7
20260508234041 64 217 0.0 0.0 0.00 0.00 0.00 52 1011.6
20260508233007 64 217 0.0 0.0 0.00 0.00 0.00 52 1011.6
20260508232745 65 217 0.0 0.0 0.00 0.00 0.00 52 1011.6
20260508232007 65 217 0.0 0.0 0.00 0.00 0.00 52 1011.6
20260508231506 65 217 0.0 0.0 0.00 0.00 0.00 48 1011.6
20260508231008 66 217 0.0 0.0 0.00 0.00 0.00 48 1011.5
20260508230507 66 217 0.0 0.0 0.00 0.00 0.00 50 1011.5
20260508230006 66 217 0.0 2.0 0.00 0.00 0.00 47 1011.4
20260508225506 67 217 0.0 2.0 0.00 0.00 0.00 47 1011.4
20260508225245 67 217 0.0 0.0 0.00 0.00 0.00 45 1011.4
20260508224740 67 217 0.0 0.0 0.00 0.00 0.00 41 1011.4